[[{"header":{"parameterUnit":"m.s-1","parameterCategory":1,"la1":30.2991,"la2":30.254,"lo1":-89.0895,"lo2":-89.0444,"dy":0.0017,"dx":0.0017,"nx":28,"ny":28,"refTime":"2024-04-03T21:00:00:Z","depth":0,"parameterNumber":2,"parameterNumberName":"U-component_of_WINDS"},"data":[0,0,0,0,0,0,0,0,0,0,0,0,0,0,0,0,0,0,0,0,0,0,0,0,0,0,0,0,0,0,0,0,0,0,0,0,0,0,0,0,0,0,0,0,0,0,0,0,0,0,0,0,0,0,0,0,0,0,3.6742,3.6743,0,3.6824,3.6825,3.6825,3.6783,3.6781,3.6779,3.6777,3.6858,3.6862,3.6866,0,0,0,0,0,0,0,0,0,0,0,0,0,3.6546,3.655,3.6742,3.6743,3.6744,3.6823,3.6825,3.6826,3.6784,3.6781,3.6778,3.6776,3.6856,3.6861,3.6866,0,0,0,0,0,0,0,0,0,0,0,0,0,3.663,3.6552,3.6741,3.6732,3.6732,3.6823,3.6825,3.6826,3.6784,3.6781,3.6778,3.6775,3.6855,3.6861,3.6867,3.697,0,0,3.6886,3.6889,0,0,0,0,0,0,0,0,3.6625,3.6637,3.6733,3.6733,3.6733,3.679,3.6785,3.6874,3.6785,3.6764,3.6777,3.6773,3.6837,3.6845,3.6867,3.6974,3.6977,3.6886,3.689,3.6893,3.6895,0,0,0,0,0,0,0,3.662,3.6633,3.6774,3.6734,3.6735,3.6723,3.6732,3.6802,3.6818,3.6766,3.6763,3.6774,3.6837,3.6861,3.6869,3.6979,3.6886,3.6892,3.6896,3.6898,3.7174,3.7178,0,0,0,0,0,0,3.6615,3.6629,3.6771,3.6776,3.667,3.673,3.6739,3.6775,3.6817,3.6821,3.6776,3.6771,3.6852,3.6862,3.6872,3.6995,3.6893,3.6899,3.6902,3.7171,3.7175,3.7179,0,0,0,0,0,0,3.6611,3.6628,3.6768,3.6702,3.6719,3.6737,3.6777,3.6778,3.6803,3.6825,3.6827,3.6798,3.685,3.6863,3.6946,3.6997,3.6901,3.6907,3.7166,3.7172,3.7177,3.7243,0,0,0,0,0,0,3.6605,3.6627,3.6666,3.6703,3.6723,3.6842,3.6781,3.6782,3.6814,3.6808,3.6846,3.6849,3.6849,3.6937,3.6952,3.7004,3.6912,3.7162,3.7169,3.7175,3.7236,3.725,3.7261,0,0,0,0,0,3.6598,3.6681,3.6669,3.6686,3.6773,3.6845,3.6856,3.6854,3.6818,3.6858,3.6873,3.6848,3.699,3.6946,3.6963,3.7017,3.7159,3.7167,3.7175,3.723,3.7247,3.7261,0,0,0,0,0,0,3.6648,3.6686,3.6672,3.677,3.6805,3.6838,3.6888,3.6872,3.6917,3.691,3.6905,3.6914,3.7,3.7017,3.6968,3.7119,3.7068,3.708,3.7105,3.7121,3.7133,3.7127,3.6917,0,0,0,0,0,3.6671,3.6727,3.6756,3.6839,3.6858,3.687,3.6902,3.6897,3.6933,3.6947,3.6968,3.7003,3.7055,3.7089,3.7138,3.7239,3.7246,3.7285,3.7297,3.7308,3.7317,3.7372,3.7389,3.7205,3.7205,3.7205,0,0,3.6717,3.6745,3.678,3.685,3.6877,3.6934,3.6883,3.6946,3.6988,3.6956,3.7036,3.7053,3.7092,3.7184,3.7226,3.7201,3.737,3.7318,3.7326,3.733,3.7382,3.7399,3.7414,3.7211,3.721,3.7209,0,0,3.6831,3.6858,3.693,3.6959,3.7,3.7008,3.7026,3.7062,3.7072,3.7153,3.7131,3.7181,3.7271,3.7299,3.7325,3.7452,3.7431,3.7469,3.7534,3.7587,3.7601,3.7614,3.7658,3.7674,3.7479,3.7479,3.7479,0,3.6883,3.697,3.6969,3.7034,3.7065,3.7041,3.7113,3.7141,3.7196,3.7218,3.7189,3.7303,3.7327,3.7425,3.7457,3.7479,3.7498,3.7463,3.76,3.7612,3.7624,3.7666,3.7683,3.7483,3.7482,3.7482,3.7482,0,3.7032,3.7092,3.7145,3.7201,3.7238,3.7307,3.7315,3.7353,3.7346,3.7357,3.7439,3.7468,3.7523,3.7546,3.754,3.7645,3.7628,3.76,3.7548,3.7646,3.7685,3.7701,3.7489,3.7487,3.7486,3.7485,0,0,3.7177,3.7233,3.7252,3.7277,3.7322,3.7368,3.7436,3.7491,3.7523,3.7562,3.7618,3.7696,3.7671,3.7701,3.7697,3.7744,3.7842,3.771,3.7711,3.7733,3.7958,3.7977,3.7996,3.7829,3.7832,3.7835,3.7954,0,3.7293,3.7412,3.7414,3.7522,3.7578,3.7557,3.7616,3.7649,3.7662,3.771,3.7724,3.7778,3.7742,3.776,3.7805,3.782,3.7887,3.7812,3.7879,3.7882,3.7869,3.8017,3.8037,3.8148,3.797,3.7972,3.7974,0,3.7444,3.749,3.7604,3.7642,3.7665,3.7718,3.7769,3.7816,3.7854,3.7859,3.7894,3.7884,3.7952,3.79,3.7994,3.7943,3.7971,3.7983,3.7987,3.7991,3.7932,3.8024,3.8184,3.82,3.7999,3.7997,3.7995,0,3.7537,3.7627,3.7707,3.773,3.7776,3.7813,3.7834,3.7869,3.7902,3.7947,3.7968,3.8019,3.8047,3.8087,3.8091,3.8053,3.8185,3.8133,3.819,3.819,3.8217,3.8214,3.8382,3.8238,3.8238,3.8238,3.8237,0,3.7665,3.7735,3.775,3.7799,3.7877,3.7879,3.7956,3.7974,3.8006,3.8057,3.8043,3.8091,3.8095,3.8144,3.8148,3.8224,3.8237,3.8243,3.8243,3.8243,3.8242,3.826,3.8252,3.8242,3.8241,3.824,3.8239,0,3.7781,3.7793,3.7879,3.7917,3.7928,3.7984,3.8016,3.8063,3.8075,3.814,3.8156,3.8174,3.8232,3.8241,3.8309,3.8311,3.8402,3.8395,3.839,3.8388,3.8444,3.8438,3.8627,3.8651,3.8493,3.8495,3.8496,0,3.7861,3.7915,3.7959,3.7993,3.8016,3.8071,3.8106,3.811,3.8146,3.8194,3.8234,3.8292,3.8337,3.8431,3.8449,3.8501,3.8494,3.8557,3.8501,3.85,3.8493,3.8489,3.8494,3.8566,3.8568,3.857,3.8571,0,3.8001,3.8005,3.8055,3.8108,3.815,3.8191,3.8231,3.8259,3.8268,3.831,3.8369,3.8405,3.8475,3.8531,3.8583,3.8604,3.8589,3.8589,3.8604,3.8604,3.8598,3.8601,3.8417,3.8583,3.8582,3.8581,3.8581,3.858,3.81,3.8147,3.8186,3.8242,3.8273,3.831,3.8356,3.8375,3.8425,3.8483,3.8482,3.8548,3.8585,3.8653,3.8678,3.8728,3.8708,3.8731,3.8736,3.8741,3.8746,3.8592,3.8738,3.8738,3.8737,3.8737,3.8737,0,3.8238,3.8263,3.8315,3.8371,3.8416,3.84,3.8443,3.8481,3.8539,3.8575,3.8621,3.869,3.8745,3.8769,3.8823,3.8859,3.8853,3.8873,3.8869,3.8874,3.8762,3.8743,3.8877,3.8877,3.8877,3.8876,3.8876,3.8876,3.8315,3.8394,3.8403,3.8496,3.852,3.8585,3.8611,3.8645,3.8674,3.8752,3.8798,3.8814,3.8846,3.8902,3.8952,3.8957,3.8977,3.8999,3.9002,3.8896,3.8882,3.8868,3.885,3.9004,3.9004,3.9109,3.911,3.911]},{"header":{"parameterUnit":"m.s-1","parameterCategory":1,"la1":30.2991,"la2":30.254,"lo1":-89.0895,"lo2":-89.0444,"dy":0.0017,"dx":0.0017,"nx":28,"ny":28,"refTime":"2024-04-03T21:00:00:Z","depth":0,"parameterNumber":3,"parameterNumberName":"V-component_of_WINDS"},"data":[0,0,0,0,0,0,0,0,0,0,0,0,0,0,0,0,0,0,0,0,0,0,0,0,0,0,0,0,0,0,0,0,0,0,0,0,0,0,0,0,0,0,0,0,0,0,0,0,0,0,0,0,0,0,0,0,0,0,-3.5835,-3.5837,0,-3.6055,-3.6057,-3.606,-3.6026,-3.6022,-3.6018,-3.6015,-3.6242,-3.6251,-3.6261,0,0,0,0,0,0,0,0,0,0,0,0,0,-3.5388,-3.5396,-3.5834,-3.5837,-3.584,-3.6054,-3.6057,-3.606,-3.6027,-3.6022,-3.6017,-3.6013,-3.6239,-3.625,-3.6262,0,0,0,0,0,0,0,0,0,0,0,0,0,-3.5592,-3.5399,-3.5834,-3.5849,-3.5852,-3.6054,-3.6057,-3.6061,-3.6027,-3.6022,-3.6016,-3.6011,-3.6235,-3.6249,-3.6263,-3.6464,0,0,-3.6307,-3.6313,0,0,0,0,0,0,0,0,-3.5581,-3.5609,-3.5844,-3.5848,-3.5852,-3.6007,-3.5983,-3.6196,-3.6029,-3.5961,-3.6015,-3.6008,-3.6168,-3.6188,-3.6242,-3.6475,-3.6484,-3.6308,-3.6317,-3.6323,-3.6327,0,0,0,0,0,0,0,-3.5567,-3.5599,-3.5921,-3.5847,-3.5853,-3.5846,-3.5868,-3.6023,-3.6094,-3.5967,-3.5965,-3.5991,-3.617,-3.6228,-3.6247,-3.6488,-3.6308,-3.632,-3.6329,-3.6335,-3.6899,-3.6905,0,0,0,0,0,0,-3.5548,-3.5587,-3.5914,-3.5928,-3.57,-3.5858,-3.5884,-3.5963,-3.6092,-3.6106,-3.5996,-3.5989,-3.6206,-3.623,-3.6255,-3.65,-3.6323,-3.6336,-3.6345,-3.6892,-3.69,-3.6907,0,0,0,0,0,0,-3.5538,-3.5577,-3.5906,-3.5757,-3.5799,-3.5872,-3.5961,-3.597,-3.6028,-3.6114,-3.6126,-3.6042,-3.6203,-3.6234,-3.6412,-3.6507,-3.6343,-3.6356,-3.6885,-3.6895,-3.6903,-3.6991,0,0,0,0,0,0,-3.5526,-3.5574,-3.5651,-3.5759,-3.5807,-3.6059,-3.5967,-3.5979,-3.6053,-3.6046,-3.6161,-3.6174,-3.6201,-3.6391,-3.6427,-3.6524,-3.6367,-3.6877,-3.6889,-3.69,-3.698,-3.7002,-3.7021,0,0,0,0,0,-3.551,-3.5666,-3.5655,-3.5694,-3.5904,-3.6065,-3.6092,-3.6119,-3.6061,-3.6139,-3.6194,-3.6171,-3.6491,-3.641,-3.6449,-3.6552,-3.6871,-3.6886,-3.6899,-3.697,-3.6998,-3.702,0,0,0,0,0,0,-3.5567,-3.5681,-3.5669,-3.5865,-3.5956,-3.6059,-3.6158,-3.6147,-3.6256,-3.6245,-3.6274,-3.63,-3.6481,-3.6534,-3.6442,-3.6754,-3.6673,-3.6696,-3.6713,-3.674,-3.676,-3.6744,-3.6379,0,0,0,0,0,-3.5602,-3.5723,-3.5816,-3.598,-3.6026,-3.6084,-3.6156,-3.6169,-3.6264,-3.6302,-3.637,-3.6464,-3.6586,-3.6665,-3.6782,-3.6987,-3.7012,-3.7077,-3.7098,-3.7114,-3.7134,-3.7248,-3.7279,-3.6954,-3.6954,-3.6954,0,0,-3.5677,-3.5754,-3.5828,-3.5994,-3.6065,-3.6191,-3.6117,-3.6252,-3.6346,-3.6323,-3.6495,-3.6549,-3.6655,-3.6848,-3.6936,-3.6898,-3.723,-3.7133,-3.7145,-3.7156,-3.7266,-3.7297,-3.7324,-3.6964,-3.6962,-3.6961,0,0,-3.5877,-3.5947,-3.6092,-3.6165,-3.6274,-3.6312,-3.6347,-3.6453,-3.6487,-3.6661,-3.6646,-3.6759,-3.6967,-3.7045,-3.7111,-3.7342,-3.7326,-3.7379,-3.7488,-3.7599,-3.7624,-3.7647,-3.7731,-3.7761,-3.7398,-3.7399,-3.7399,0,-3.5956,-3.6144,-3.6168,-3.6306,-3.638,-3.6364,-3.6512,-3.6582,-3.6724,-3.6776,-3.6731,-3.6994,-3.7064,-3.7276,-3.7332,-3.7386,-3.7428,-3.7367,-3.7619,-3.7642,-3.7664,-3.7744,-3.7775,-3.7405,-3.7404,-3.7403,-3.7403,0,-3.6236,-3.6367,-3.6471,-3.6609,-3.6694,-3.6837,-3.6884,-3.6967,-3.6973,-3.7016,-3.7194,-3.7278,-3.7413,-3.7463,-3.747,-3.7677,-3.765,-3.7611,-3.753,-3.77,-3.7776,-3.7807,-3.7413,-3.7411,-3.7409,-3.7408,0,0,-3.6479,-3.6628,-3.6667,-3.673,-3.6849,-3.6951,-3.7093,-3.7224,-3.7297,-3.7395,-3.7517,-3.7694,-3.766,-3.7735,-3.7751,-3.7848,-3.8028,-3.7798,-3.7801,-3.7839,-3.8263,-3.8292,-3.8327,-3.8017,-3.8023,-3.8027,-3.8254,0,-3.6692,-3.6942,-3.6969,-3.7193,-3.7315,-3.7302,-3.7426,-3.7514,-3.7558,-3.7669,-3.7718,-3.7844,-3.7788,-3.7834,-3.7929,-3.7985,-3.8113,-3.7969,-3.8131,-3.8137,-3.8107,-3.8367,-3.8398,-3.8608,-3.8284,-3.8289,-3.8293,0,-3.6974,-3.7081,-3.7317,-3.7421,-3.7474,-3.7585,-3.7708,-3.7813,-3.7913,-3.7938,-3.8023,-3.8026,-3.8174,-3.8087,-3.8292,-3.8193,-3.8261,-3.8299,-3.8308,-3.8325,-3.8226,-3.8393,-3.8676,-3.8708,-3.834,-3.8336,-3.8333,0,-3.7129,-3.7332,-3.75,-3.7554,-3.768,-3.7758,-3.7814,-3.7908,-3.7986,-3.8094,-3.8145,-3.8268,-3.8337,-3.8433,-3.847,-3.8402,-3.8674,-3.8589,-3.8701,-3.87,-3.876,-3.8756,-3.9059,-3.8801,-3.88,-3.88,-3.8799,0,-3.7365,-3.7511,-3.7572,-3.7676,-3.7839,-3.7869,-3.803,-3.8082,-3.8166,-3.8281,-3.8277,-3.8385,-3.8426,-3.8541,-3.8571,-3.8738,-3.8768,-3.8794,-3.88,-3.8795,-3.8792,-3.8841,-3.8829,-3.8808,-3.8806,-3.8804,-3.8803,0,-3.7567,-3.7614,-3.7797,-3.79,-3.793,-3.8046,-3.8135,-3.8236,-3.8279,-3.8424,-3.846,-3.8527,-3.8663,-3.8709,-3.8872,-3.8892,-3.9087,-3.908,-3.9054,-3.9055,-3.9166,-3.9155,-3.9513,-3.9562,-3.9269,-3.9272,-3.9274,0,-3.7715,-3.7827,-3.7943,-3.8019,-3.8078,-3.8201,-3.828,-3.8314,-3.8397,-3.8519,-3.8606,-3.874,-3.8849,-3.9066,-3.9131,-3.9256,-3.9254,-3.937,-3.9273,-3.9265,-3.9258,-3.9252,-3.9264,-3.9389,-3.9392,-3.9394,-3.9396,0,-3.7974,-3.7992,-3.8106,-3.8229,-3.8324,-3.8422,-3.8517,-3.858,-3.8628,-3.8722,-3.886,-3.8945,-3.9112,-3.9246,-3.9375,-3.9433,-3.9425,-3.9426,-3.9459,-3.9457,-3.9437,-3.9451,-3.9105,-3.9418,-3.9416,-3.9415,-3.9413,-3.9413,-3.8156,-3.8255,-3.8352,-3.848,-3.8555,-3.8644,-3.8745,-3.88,-3.8916,-3.9055,-3.9067,-3.9217,-3.9315,-3.9487,-3.9552,-3.967,-3.9638,-3.9685,-3.9698,-3.9709,-3.9719,-3.9417,-3.9694,-3.9693,-3.9692,-3.9692,-3.9692,0,-3.8416,-3.8478,-3.8595,-3.8728,-3.8829,-3.881,-3.8915,-3.9001,-3.9133,-3.9225,-3.9332,-3.9492,-3.9622,-3.9697,-3.9828,-3.9908,-3.9908,-3.9942,-3.9937,-3.9951,-3.9739,-3.9699,-3.994,-3.994,-3.994,-3.994,-3.994,-3.994,-3.8563,-3.8731,-3.8761,-3.8967,-3.9028,-3.9174,-3.9236,-3.9319,-3.9393,-3.9571,-3.9679,-3.9727,-3.9813,-3.995,-4.0069,-4.0087,-4.0137,-4.0175,-4.0191,-3.9991,-3.9966,-3.9942,-3.9904,-4.0185,-4.0185,-4.0393,-4.0395,-4.0397]}]]